CAPE
0 0 0 0 0 0 0 0 0 7 58 109 204 276 497 722 878 981 778 298 744 1237 1074 650 963 1225 1446 1308 1107 1032 890 746 1051 1023 1152 1261 917 616 475 334 152 8 0 0 0 0 1 6 17
0 0 0 0 0 0 0 0 0 52 205 167 463 502 467 318 665 1021 722 417 969 902 948 999 906 890 1403 1276 1077 995 828 833 1101 1076 1211 1317 1101 632 535 350 139 24 0 0 0 0 0 0 4
0 0 0 0 0 0 0 0 2 99 212 330 804 760 617 380 380 465 667 642 581 260 356 411 44 305 965 1260 1119 821 652 791 958 939 1160 1345 1165 792 655 380 201 98 13 0 0 0 0 0 0
0 0 0 0 0 0 0 0 189 173 275 401 657 592 417 422 508 960 509 926 799 365 232 166 44 262 958 1175 1048 658 589 687 800 869 1139 1343 1233 891 741 478 334 189 0 0 0 0 0 3 5
0 0 0 0 0 0 0 1 177 312 272 195 147 80 297 192 745 893 836 1003 1036 712 205 185 92 229 618 1068 817 656 673 769 820 977 1097 1187 1267 976 782 554 352 172 8 0 0 0 14 0 8
0 0 0 0 0 0 1 13 61 252 241 122 25 7 13 432 416 570 669 847 665 601 564 559 421 339 412 517 481 607 715 903 1056 1125 1195 1252 1213 1014 803 569 369 257 168 45 0 0 19 5 0
0 0 0 0 0 0 2 22 102 179 152 99 42 81 27 391 344 511 985 856 584 465 534 545 233 369 62 64 144 641 733 930 975 1131 1189 1162 1077 985 768 603 418 250 120 53 0 0 0 18 0
0 0 0 0 0 9 21 50 48 42 333 497 562 644 153 348 348 731 657 658 561 432 419 361 223 118 15 24 30 300 617 576 502 633 664 740 812 793 623 392 318 189 127 63 0 0 0 0 0
0 0 0 0 0 2 59 57 18 83 249 229 337 330 341 383 497 785 607 830 517 450 243 232 109 33 71 60 75 153 422 365 274 390 417 375 319 236 78 170 212 184 85 65 0 0 0 0 0
0 0 0 0 0 25 53 23 28 0 2 67 153 276 285 832 296 416 498 516 542 383 159 120 93 25 11 18 15 177 287 144 71 121 129 104 95 55 86 126 143 107 77 64 12 0 0 0 0
0 0 0 0 0 8 26 63 52 31 248 64 0 121 207 312 325 249 333 421 339 340 347 229 130 57 3 0 5 70 96 44 1 2 6 12 7 36 30 19 25 38 60 23 1 0 0 0 0
0 0 0 0 0 3 39 224 233 48 143 158 51 198 107 377 144 179 192 189 344 339 291 253 135 74 5 1 0 48 25 0 0 0 8 1 0 6 7 4 3 2 0 0 0 0 0 0 0
0 0 0 0 0 27 53 187 169 258 346 153 121 212 99 23 50 103 174 224 263 249 211 206 52 98 11 6 4 57 2 0 1 19 11 0 0 4 7 0 5 10 10 1 0 0 0 0 0
0 0 0 0 0 0 3 7 17 114 153 148 61 86 64 30 35 42 33 144 202 89 100 131 45 48 23 10 16 11 0 9 11 48 20 0 6 9 4 0 3 7 16 0 0 0 0 0 0
0 0 0 0 0 0 0 0 0 193 207 104 42 42 23 3 3 13 17 49 51 69 105 155 36 36 40 23 12 16 10 6 41 77 41 16 16 28 17 17 27 24 10 3 0 0 0 0 0
0 0 0 0 0 0 1 5 0 157 95 221 27 27 17 0 0 1 1 0 6 13 32 75 23 17 11 25 16 8 10 28 43 61 83 87 102 99 104 103 71 32 29 1 0 0 0 0 0
0 0 0 0 0 0 1 0 0 0 65 65 19 50 12 0 0 0 0 1 0 6 17 2 46 8 12 20 8 15 14 7 15 18 32 48 74 159 161 119 113 69 27 0 0 0 0 0 0
0 0 0 0 3 3 0 0 0 6 0 16 53 37 0 0 0 0 0 0 2 0 0 14 17 6 17 19 4 16 10 3 0 2 1 1 70 82 168 144 94 62 26 0 0 0 0 0 0
0 0 0 0 0 26 1 0 0 7 0 14 81 16 0 0 0 0 0 0 0 0 0 0 4 1 0 4 2 1 1 0 2 4 2 3 14 70 144 126 103 47 5 0 9 0 0 0 0
0 0 0 0 1 19 21 8 6 0 15 64 35 21 0 8 0 0 0 0 0 0 0 0 0 0 0 0 5 0 0 0 3 0 0 0 0 41 94 141 94 71 3 44 19 25 11 0 0
0 0 0 0 0 1 0 0 0 6 9 24 31 40 0 7 8 0 0 0 0 0 0 0 0 0 0 0 0 0 1 3 0 0 0 0 0 0 16 51 132 68 39 27 49 48 14 13 29
0 0 0 0 0 0 0 0 0 0 26 53 90 96 37 31 7 0 0 0 0 0 0 0 0 0 0 0 0 0 0 0 0 0 0 0 5 14 18 64 109 62 60 48 62 52 30 41 38
0 0 0 0 0 0 0 0 0 0 41 119 129 148 147 92 12 0 0 0 0 0 0 0 0 0 0 0 0 0 0 0 0 0 0 2 30 31 103 139 177 127 97 40 36 10 21 41 34
0 0 0 0 0 0 0 0 0 46 59 148 190 197 226 201 81 6 1 0 0 0 0 0 0 0 0 0 0 0 0 0 0 0 0 0 46 82 115 164 206 112 91 94 36 24 23 35 37
0 0 0 0 0 0 0 0 0 0 35 82 131 201 268 296 190 87 38 14 5 0 0 0 0 0 0 0 0 0 0 0 0 0 0 0 26 86 123 170 124 87 84 85 46 42 43 41 25
0 0 0 0 0 0 0 0 0 0 0 0 33 146 205 337 300 220 83 81 58 21 1 0 0 0 0 0 0 0 0 15 13 7 4 0 13 43 164 207 149 110 63 68 52 28 26 44 50
0 0 0 0 0 0 0 0 0 0 0 0 0 70 174 268 272 333 281 179 147 129 77 75 9 0 0 0 0 5 20 28 55 117 225 31 53 134 145 229 188 131 115 78 52 42 64 96 66
0 0 0 0 0 0 0 0 0 0 0 0 0 2 60 115 211 306 352 337 247 197 186 155 151 138 60 12 0 0 18 35 54 69 140 184 76 177 163 135 85 78 117 89 115 54 54 86 56
0 0 0 2 0 0 0 0 0 0 0 1 0 0 0 107 176 226 269 329 348 277 239 243 215 169 207 149 56 8 12 39 100 105 107 170 215 266 320 261 227 148 119 133 249 64 167 36 17
0 0 0 0 0 0 0 0 0 0 0 0 0 1 1 40 114 170 160 193 253 295 294 219 211 239 259 272 252 120 130 174 169 168 188 269 185 317 257 263 232 168 219 215 160 124 59 34 9
CIN
0 0 0 0 0 0 0 0 0 -20 -9 -196 -149 -187 -171 -170 -103 -30 -91 -103 -55 -0 -8 -117 -46 -0 0 -1 -25 -10 -23 -20 0 -1 0 0 -0 -12 -16 -16 -26 -99 0 0 0 0 0 -0 -1
0 0 0 0 0 0 0 0 0 -6 -34 -304 -199 -212 -279 -310 -180 -69 -79 -166 -47 -46 -41 -23 -18 -2 -0 -8 -15 -0 -1 0 0 0 0 0 0 -3 -3 -12 -25 -54 0 0 0 0 0 0 -3
0 0 0 0 0 0 0 0 -18 -38 -100 -76 -157 -259 -269 -324 -324 -288 -149 -42 -54 -116 -183 -43 -125 -126 -0 -0 -0 0 -1 -2 0 0 0 0 0 0 -1 -16 -27 -25 -39 0 0 0 0 0 0
0 0 0 0 0 0 0 0 -71 -54 -74 -213 -253 -180 -357 -341 -286 -103 -201 -18 -34 -52 -103 -101 -93 -23 0 0 -0 -1 -2 -0 -0 -0 0 0 0 0 0 -10 -16 -19 0 0 0 0 -8 -33 -62
0 0 0 0 0 0 0 -2 -143 -205 -235 -130 -76 -45 -256 -434 -220 -66 -59 -2 -1 -7 -85 -151 -26 -24 -1 0 0 -0 -0 -0 -0 -1 -0 0 0 0 0 -7 -18 -29 -19 0 0 0 -66 0 -34
0 0 0 0 0 0 -2 -33 -125 -77 -183 -68 -173 -73 -191 -258 -276 -121 -24 -45 -49 -16 -20 -1 -8 0 0 -1 -0 -0 -1 -0 -1 -4 -0 0 -0 -0 -0 -7 -22 -32 -47 -54 0 0 -76 -36 0
0 0 0 0 0 0 -17 -34 -123 -58 -80 -145 -160 -226 -189 -165 -219 -116 -15 -27 -38 -65 -44 -3 -13 -0 -5 -1 -15 -3 -1 -1 -1 -1 -1 -1 -2 -1 -2 -12 -25 -40 -57 -75 0 0 -3 -72 0
0 0 0 0 0 -2 -79 -54 -69 -210 -178 -154 -137 -77 -114 -134 -180 -127 -84 -50 -30 -82 -33 -2 -0 0 -3 -7 0 -4 -3 -2 -1 -1 -2 -2 -3 -3 -11 -25 -34 -53 -59 -79 0 0 0 0 0
0 0 0 0 0 -12 -64 -117 -241 -201 -181 -209 -176 -117 -81 -122 -118 -74 -35 0 -49 -22 -48 -11 -1 -92 -13 -1 -1 -0 -21 -27 -16 -7 -7 -7 -13 -32 -76 -59 -56 -58 -82 -82 -39 0 0 0 0
0 0 0 0 0 -59 -87 -52 -35 0 -91 -200 -190 -136 -58 -1 -113 -73 -34 -0 -4 -16 -48 -48 -18 -45 -102 -14 -0 -5 -11 -46 -58 -40 -35 -48 -53 -88 -86 -77 -81 -77 -99 -127 -238 0 0 0 0
0 0 0 0 0 -135 -95 -81 -39 -114 -225 -275 0 -117 -42 -4 -12 -35 -46 -17 -14 -15 -6 0 -9 -6 -42 -0 -18 -12 -19 -63 -17 -71 -214 -185 -153 -115 -142 -159 -167 -163 -212 -254 -18 0 0 0 0
0 0 0 0 0 -20 -96 -133 -209 -211 -200 -228 -197 -109 -53 -3 -6 -3 -19 -19 -2 -3 -3 0 -4 -11 -94 -84 0 -23 -34 0 0 -11 -196 -201 0 -193 -248 -278 -131 -244 -1 0 0 0 0 0 0
0 0 0 0 0 -199 -137 -176 -219 -190 -145 -152 -158 -104 -101 -43 -6 -16 -0 -4 -6 -1 -0 -2 -20 -13 -33 -36 -6 -14 -4 0 -38 -94 -78 0 -53 -276 -294 0 -109 -110 -111 -39 0 0 0 0 0
0 0 0 0 0 0 -52 -254 -27 -244 -187 -151 -167 -198 -72 -25 -10 -5 -1 -21 -21 -50 -28 -2 -44 -18 -28 -47 -1 -4 0 -83 -132 -55 -48 0 -247 -268 -301 0 -128 -104 -74 0 0 0 0 0 0
0 0 0 0 0 0 0 0 0 -282 -197 -207 -190 -239 -212 -97 -2 0 -4 -40 -79 -101 -38 -18 -9 -32 -6 -0 -1 -6 -35 -65 -76 -42 -162 -167 -195 -169 -199 -101 -72 -86 -71 -32 0 0 0 0 0
0 0 0 0 0 0 -42 -30 0 -282 -259 -203 -129 -100 -207 0 0 0 0 0 -27 -0 -1 -124 -1 -11 -2 -1 0 -0 -4 -31 -31 -57 -52 -68 -78 -116 -68 -39 -43 -43 -41 -2 0 0 0 0 0
0 0 0 0 0 0 -59 0 0 -17 -253 -304 -116 -84 -46 0 0 0 0 0 0 0 0 0 -0 -25 -1 -6 -11 -0 -0 -13 -4 -15 -12 -78 -25 -53 -50 -30 -25 -22 -34 0 0 0 0 0 0
0 0 0 0 -9 -18 -22 0 0 -77 0 -148 -125 -99 -16 0 0 0 0 0 0 0 0 0 0 -1 -12 0 0 -2 -0 0 0 -1 0 -6 -57 -77 -18 -14 -11 -6 -14 0 0 0 0 0 0
0 0 0 0 0 -76 -31 0 0 -63 -28 -138 -147 -138 0 -1 0 0 0 0 0 0 0 0 0 0 0 0 -0 0 0 0 0 0 0 -231 -179 -93 -40 -15 -13 -10 -18 0 -3 0 0 0 0
0 0 0 0 -12 -9 -21 -87 -72 0 -225 -173 -146 -185 0 -179 0 0 0 0 0 0 0 0 0 0 0 0 -0 0 0 0 0 0 0 0 0 -80 -59 -41 -32 -14 -9 -4 -9 -16 -26 0 0
0 0 0 0 0 -11 0 0 -0 -98 -57 -115 -156 -64 0 -125 -181 0 0 0 0 0 0 0 0 0 0 0 0 0 0 0 0 0 0 0 0 0 -197 -96 -23 -43 -29 -18 -29 -33 -27 -2 -1
0 0 0 0 0 0 0 0 0 0 -73 -64 -52 -68 -72 -256 -237 0 0 0 0 0 0 0 0 0 0 0 0 0 0 0 0 0 0 0 -60 -88 -82 -74 -42 -47 -24 -28 -36 -24 -1 0 -2
0 0 0 0 0 0 0 0 0 0 -219 -98 -78 -63 -81 -71 -313 -13 0 0 0 0 0 0 0 0 0 0 0 0 0 0 0 0 0 -32 -97 -117 -76 -46 -32 -26 -31 -45 -28 -32 -6 -4 -1
0 0 0 0 0 0 0 0 0 -112 -124 -166 -95 -81 -68 -86 -83 -99 -40 0 0 0 0 0 0 0 0 0 0 0 0 -7 0 0 0 0 -166 -124 -85 -46 -24 -36 -32 -46 -47 -31 -16 -5 -0
0 -1 0 0 0 0 0 0 0 0 -93 -78 -102 -86 -79 -63 -75 -84 -104 -119 -77 0 0 0 0 0 0 0 0 0 0 0 0 0 0 0 -171 -113 -82 -48 -37 -33 -49 -44 -38 -26 -10 -5 -8
0 0 0 0 0 0 0 0 0 0 0 0 -133 -120 -70 -77 -56 -41 -61 -62 -63 -90 -22 0 0 0 0 0 0 0 0 -224 -173 -143 -99 0 -17 -118 -36 -56 -79 -41 -33 -27 -18 -23 -25 -6 -4
0 0 0 0 0 0 0 0 0 0 0 0 -7 -87 -54 -52 -72 -32 -26 -33 -39 -52 -62 -69 -6 0 0 0 0 -275 -320 -258 -199 -90 -50 -130 -41 -35 -34 -42 -45 -51 -27 -23 -19 -21 -14 -6 -14
0 0 0 0 0 0 0 0 0 0 0 0 0 -16 -126 -99 -81 -49 -27 -18 -30 -43 -42 -36 -24 -35 -37 -9 0 0 -231 -169 -123 -161 -88 -50 -53 -34 -15 -21 -30 -70 -38 -34 -16 -33 -26 -3 -16
0 0 0 -4 0 0 0 0 0 0 0 -4 0 0 -18 -86 -80 -40 -28 -24 -9 -23 -32 -34 -21 -35 -66 -65 -57 -71 -285 -139 -70 -57 -44 -54 -35 -35 -30 -23 -16 -47 -55 -35 -7 -34 -4 -21 -8
0 0 0 0 0 0 0 0 0 0 0 0 0 -16 -31 -52 -42 -47 -52 -46 -20 -21 -27 -54 -68 -60 -73 -58 -62 -61 -209 -151 -71 -37 -37 -9 -120 -31 -53 -55 -52 -69 -43 -20 -21 -14 -20 -17 -6
Wind_Speed
nan nan nan nan nan nan nan nan nan nan nan 13 10 18 23 28 33 37 39 40 35 45 51 54 56 28 50 48 33 35 42 45 46 49 48 51 51 49 47 45 43 nan nan nan nan nan nan nan nan
nan nan nan nan nan nan nan nan nan nan 13 25 20 20 24 23 28 33 35 29 38 43 45 62 66 40 32 45 36 36 40 42 49 47 51 52 51 48 45 41 41 nan nan nan nan nan nan nan nan
nan nan nan nan nan nan nan nan nan nan 13 28 26 22 25 21 29 34 36 41 30 37 40 48 nan 44 21 36 30 35 38 45 45 47 50 52 49 46 42 43 41 nan nan nan nan nan nan nan nan
nan nan nan nan nan nan nan nan 6 20 22 30 31 30 19 25 26 31 34 45 41 44 36 38 nan 28 32 32 43 43 42 44 44 47 48 48 46 43 42 39 39 37 nan nan nan nan nan nan nan
nan nan nan nan nan nan nan nan 10 22 29 27 32 nan 27 30 22 29 36 43 49 49 39 45 nan 24 39 50 42 47 49 42 43 46 47 48 47 41 36 33 33 35 nan nan nan nan nan nan nan
nan nan nan nan nan nan nan nan nan 32 31 30 nan nan nan 26 29 37 31 38 39 35 37 39 23 12 24 45 45 52 52 46 45 46 49 47 41 40 38 32 33 34 32 nan nan nan nan nan nan
nan nan nan nan nan nan nan nan 25 34 28 nan nan nan nan 16 21 20 21 24 27 33 29 34 21 17 nan nan 60 65 55 49 51 50 45 41 41 41 39 37 36 33 33 nan nan nan nan nan nan
nan nan nan nan nan nan nan nan nan nan 24 20 19 21 20 12 9 16 18 19 20 23 16 29 25 30 nan nan nan 45 59 51 50 49 44 40 45 45 39 38 39 35 35 nan nan nan nan nan nan
nan nan nan nan nan nan nan nan nan nan 24 25 12 16 21 9 14 18 16 17 22 19 21 22 31 nan nan nan nan 30 35 43 42 42 39 33 36 35 nan 34 37 36 nan nan nan nan nan nan nan
nan nan nan nan nan nan nan nan nan nan nan nan 13 22 17 19 11 13 12 18 21 21 25 26 nan nan nan nan nan 32 28 23 nan 22 31 27 nan nan nan 32 38 37 nan nan nan nan nan nan nan
nan nan nan nan nan nan nan nan nan nan 22 nan nan 23 22 21 13 14 13 16 18 22 27 27 27 nan nan nan nan nan nan nan nan nan nan nan nan nan nan nan nan nan nan nan nan nan nan nan nan
nan nan nan nan nan nan nan 25 19 nan 14 20 nan 25 28 24 25 12 13 16 24 23 27 29 26 nan nan nan nan nan nan nan nan nan nan nan nan nan nan nan nan nan nan nan nan nan nan nan nan
nan nan nan nan nan nan nan 19 23 14 13 18 25 33 nan nan nan 20 15 16 20 24 20 25 nan nan nan nan nan nan nan nan nan nan nan nan nan nan nan nan nan nan nan nan nan nan nan nan nan
nan nan nan nan nan nan nan nan nan 24 27 26 nan nan nan nan nan nan nan 13 20 nan 20 24 nan nan nan nan nan nan nan nan nan nan nan nan nan nan nan nan nan nan nan nan nan nan nan nan nan
nan nan nan nan nan nan nan nan nan 28 35 33 nan nan nan nan nan nan nan nan nan nan 23 26 nan nan nan nan nan nan nan nan nan nan nan nan nan nan nan nan nan nan nan nan nan nan nan nan nan
nan nan nan nan nan nan nan nan nan 30 nan 31 nan nan nan nan nan nan nan nan nan nan nan nan nan nan nan nan nan nan nan nan nan nan nan nan 22 nan 23 15 nan nan nan nan nan nan nan nan nan
nan nan nan nan nan nan nan nan nan nan nan nan nan nan nan nan nan nan nan nan nan nan nan nan nan nan nan nan nan nan nan nan nan nan nan nan nan 21 16 13 17 nan nan nan nan nan nan nan nan
nan nan nan nan nan nan nan nan nan nan nan nan nan nan nan nan nan nan nan nan nan nan nan nan nan nan nan nan nan nan nan nan nan nan nan nan nan nan 16 16 nan nan nan nan nan nan nan nan nan
nan nan nan nan nan nan nan nan nan nan nan nan nan nan nan nan nan nan nan nan nan nan nan nan nan nan nan nan nan nan nan nan nan nan nan nan nan nan 14 14 15 nan nan nan nan nan nan nan nan
nan nan nan nan nan nan nan nan nan nan nan nan nan nan nan nan nan nan nan nan nan nan nan nan nan nan nan nan nan nan nan nan nan nan nan nan nan nan nan 15 nan nan nan nan nan nan nan nan nan
nan nan nan nan nan nan nan nan nan nan nan nan nan nan nan nan nan nan nan nan nan nan nan nan nan nan nan nan nan nan nan nan nan nan nan nan nan nan nan nan 16 nan nan nan nan nan nan nan nan
nan nan nan nan nan nan nan nan nan nan nan nan nan nan nan nan nan nan nan nan nan nan nan nan nan nan nan nan nan nan nan nan nan nan nan nan nan nan nan nan 16 nan nan nan nan nan nan nan nan
nan nan nan nan nan nan nan nan nan nan nan 10 19 21 20 nan nan nan nan nan nan nan nan nan nan nan nan nan nan nan nan nan nan nan nan nan nan nan 13 13 18 17 nan nan nan nan nan nan nan
nan nan nan nan nan nan nan nan nan nan nan 11 20 18 20 18 nan nan nan nan nan nan nan nan nan nan nan nan nan nan nan nan nan nan nan nan nan nan 15 17 19 19 nan nan nan nan nan nan nan
nan nan nan nan nan nan nan nan nan nan nan nan 18 15 20 19 18 nan nan nan nan nan nan nan nan nan nan nan nan nan nan nan nan nan nan nan nan nan 14 18 22 nan nan nan nan nan nan nan nan
nan nan nan nan nan nan nan nan nan nan nan nan nan 17 16 16 18 25 nan nan nan nan nan nan nan nan nan nan nan nan nan nan nan nan nan nan nan nan 10 13 23 27 nan nan nan nan nan nan nan
nan nan nan nan nan nan nan nan nan nan nan nan nan nan 14 17 21 25 25 29 27 28 nan nan nan nan nan nan nan nan nan nan nan 6 11 nan nan 14 13 17 18 20 25 nan nan nan nan nan nan
nan nan nan nan nan nan nan nan nan nan nan nan nan nan nan 21 15 20 23 23 22 25 17 24 23 23 nan nan nan nan nan nan nan nan 16 15 nan 18 18 19 nan nan 28 nan 31 nan nan nan nan
nan nan nan nan nan nan nan nan nan nan nan nan nan nan nan 16 20 22 21 20 21 18 18 23 25 20 25 22 nan nan nan nan 18 18 21 22 22 21 20 21 25 29 30 33 34 nan 39 nan nan
nan nan nan nan nan nan nan nan nan nan nan nan nan nan nan nan 20 24 23 23 23 23 22 21 17 20 23 26 26 22 15 24 26 35 35 35 18 22 22 23 27 31 35 36 37 38 nan nan nan
Wind_Direction
nan nan nan nan nan nan nan nan nan nan nan 245 234 243 244 238 233 268 252 266 259 264 264 265 262 218 238 246 247 259 262 266 269 272 275 273 274 274 275 276 273 nan nan nan nan nan nan nan nan
nan nan nan nan nan nan nan nan nan nan 276 297 281 278 266 265 254 256 269 269 274 271 269 272 272 255 252 252 233 244 254 264 265 269 268 271 277 280 279 273 270 nan nan nan nan nan nan nan nan
nan nan nan nan nan nan nan nan nan nan 276 313 277 258 276 269 255 257 262 277 271 264 270 276 nan 283 212 240 253 248 253 258 266 269 271 275 281 281 280 276 274 nan nan nan nan nan nan nan nan
nan nan nan nan nan nan nan nan 0 321 305 296 297 275 279 264 246 250 263 275 265 274 272 276 nan 303 265 233 251 252 251 255 261 263 269 276 279 283 277 275 273 273 nan nan nan nan nan nan nan
nan nan nan nan nan nan nan nan 335 283 275 279 285 nan 267 281 265 269 267 268 264 264 261 275 nan 278 258 244 231 245 249 249 256 263 270 275 276 275 280 279 279 275 nan nan nan nan nan nan nan
nan nan nan nan nan nan nan nan nan 280 283 302 nan nan nan 257 272 261 256 272 264 259 248 258 299 307 254 232 237 244 244 245 252 259 267 270 272 274 274 280 280 274 270 nan nan nan nan nan nan
nan nan nan nan nan nan nan nan 278 286 294 nan nan nan nan 267 259 251 268 239 249 248 251 254 282 274 nan nan 231 229 233 243 245 252 257 263 267 270 271 274 280 278 267 nan nan nan nan nan nan
nan nan nan nan nan nan nan nan nan nan 285 292 297 267 275 275 230 221 244 230 241 244 261 257 256 249 nan nan nan 222 228 227 238 244 249 255 263 267 271 274 275 275 274 nan nan nan nan nan nan
nan nan nan nan nan nan nan nan nan nan 287 286 292 269 280 275 218 215 248 261 266 265 254 260 273 nan nan nan nan 264 243 225 242 242 251 255 258 256 nan 267 270 272 nan nan nan nan nan nan nan
nan nan nan nan nan nan nan nan nan nan nan nan 285 285 278 278 251 228 235 269 280 276 265 271 nan nan nan nan nan 244 221 222 nan 253 255 251 nan nan nan 274 277 283 nan nan nan nan nan nan nan
nan nan nan nan nan nan nan nan nan nan 325 nan nan 315 311 295 279 250 218 247 270 271 274 278 285 nan nan nan nan nan nan nan nan nan nan nan nan nan nan nan nan nan nan nan nan nan nan nan nan
nan nan nan nan nan nan nan 335 325 nan 347 326 nan 336 324 306 287 258 253 266 261 247 261 271 278 nan nan nan nan nan nan nan nan nan nan nan nan nan nan nan nan nan nan nan nan nan nan nan nan
nan nan nan nan nan nan nan 337 16 3 329 338 337 339 nan nan nan 260 237 258 245 236 248 273 nan nan nan nan nan nan nan nan nan nan nan nan nan nan nan nan nan nan nan nan nan nan nan nan nan
nan nan nan nan nan nan nan nan nan 9 353 341 nan nan nan nan nan nan nan 246 233 nan 244 259 nan nan nan nan nan nan nan nan nan nan nan nan nan nan nan nan nan nan nan nan nan nan nan nan nan
nan nan nan nan nan nan nan nan nan 352 354 354 nan nan nan nan nan nan nan nan nan nan 245 257 nan nan nan nan nan nan nan nan nan nan nan nan nan nan nan nan nan nan nan nan nan nan nan nan nan
nan nan nan nan nan nan nan nan nan 353 nan 358 nan nan nan nan nan nan nan nan nan nan nan nan nan nan nan nan nan nan nan nan nan nan nan nan 282 nan 273 258 nan nan nan nan nan nan nan nan nan
nan nan nan nan nan nan nan nan nan nan nan nan nan nan nan nan nan nan nan nan nan nan nan nan nan nan nan nan nan nan nan nan nan nan nan nan nan 267 241 207 173 nan nan nan nan nan nan nan nan
nan nan nan nan nan nan nan nan nan nan nan nan nan nan nan nan nan nan nan nan nan nan nan nan nan nan nan nan nan nan nan nan nan nan nan nan nan nan 181 173 nan nan nan nan nan nan nan nan nan
nan nan nan nan nan nan nan nan nan nan nan nan nan nan nan nan nan nan nan nan nan nan nan nan nan nan nan nan nan nan nan nan nan nan nan nan nan nan 165 197 214 nan nan nan nan nan nan nan nan
nan nan nan nan nan nan nan nan nan nan nan nan nan nan nan nan nan nan nan nan nan nan nan nan nan nan nan nan nan nan nan nan nan nan nan nan nan nan nan 222 nan nan nan nan nan nan nan nan nan
nan nan nan nan nan nan nan nan nan nan nan nan nan nan nan nan nan nan nan nan nan nan nan nan nan nan nan nan nan nan nan nan nan nan nan nan nan nan nan nan 231 nan nan nan nan nan nan nan nan
nan nan nan nan nan nan nan nan nan nan nan nan nan nan nan nan nan nan nan nan nan nan nan nan nan nan nan nan nan nan nan nan nan nan nan nan nan nan nan nan 254 nan nan nan nan nan nan nan nan
nan nan nan nan nan nan nan nan nan nan nan 29 15 4 15 nan nan nan nan nan nan nan nan nan nan nan nan nan nan nan nan nan nan nan nan nan nan nan 255 254 259 262 nan nan nan nan nan nan nan
nan nan nan nan nan nan nan nan nan nan nan 26 45 14 8 3 nan nan nan nan nan nan nan nan nan nan nan nan nan nan nan nan nan nan nan nan nan nan 253 259 264 270 nan nan nan nan nan nan nan
nan nan nan nan nan nan nan nan nan nan nan nan 11 26 12 13 10 nan nan nan nan nan nan nan nan nan nan nan nan nan nan nan nan nan nan nan nan nan 293 276 283 nan nan nan nan nan nan nan nan
nan nan nan nan nan nan nan nan nan nan nan nan nan 22 5 355 354 2 nan nan nan nan nan nan nan nan nan nan nan nan nan nan nan nan nan nan nan nan 325 292 283 268 nan nan nan nan nan nan nan
nan nan nan nan nan nan nan nan nan nan nan nan nan nan 350 352 352 1 353 351 356 343 nan nan nan nan nan nan nan nan nan nan nan 321 290 nan nan 283 291 305 301 296 296 nan nan nan nan nan nan
nan nan nan nan nan nan nan nan nan nan nan nan nan nan nan 352 353 351 344 347 348 349 356 347 333 347 nan nan nan nan nan nan nan nan 289 289 nan 290 296 303 nan nan 292 nan 293 nan nan nan nan
nan nan nan nan nan nan nan nan nan nan nan nan nan nan nan 314 328 339 353 352 352 353 330 335 339 343 336 328 nan nan nan nan 289 270 271 269 268 276 290 301 296 295 296 297 295 nan 297 nan nan
nan nan nan nan nan nan nan nan nan nan nan nan nan nan nan nan 321 330 337 349 353 359 352 349 339 321 328 325 333 329 307 293 294 289 288 249 242 291 296 296 293 292 294 296 297 299 nan nan nan